M0TUM-1 Weather Reports


time (UTC)temp
C
wind
direction
speed
KPH
gust
KPH
rain 1hr
cm
rain 24hr
cm
rain mn
cm
humidity
%
barometer
mb
20260507113926 11 213 0.0 0.0 0.00 0.00 0.00 65 1017.1
20260507113423 13 149 1.6 1.6 0.00 0.00 0.00 63 1017.2
20260507112921 12 151 3.2 3.2 0.00 0.00 0.00 63 1017.1
20260507112418 12 225 0.0 1.6 0.00 0.00 0.00 64 1017.2
20260507111915 12 254 1.6 3.2 0.00 0.00 0.00 63 1017.1
20260507111412 12 135 0.0 1.6 0.00 0.00 0.00 65 1017.3
20260507110908 12 102 1.6 3.2 0.00 0.00 0.00 66 1017.3
20260507110404 12 179 0.0 1.6 0.00 0.00 0.00 66 1017.2
20260507105901 11 196 0.0 0.0 0.00 0.00 0.00 67 1017.3
20260507105358 11 176 0.0 1.6 0.00 0.00 0.00 67 1017.2
20260507104855 11 164 3.2 3.2 0.00 0.00 0.00 66 1017.3
20260507104351 11 214 0.0 0.0 0.00 0.00 0.00 66 1017.4
20260507103847 11 193 0.0 1.6 0.00 0.00 0.00 67 1017.3
20260507103343 11 82 3.2 4.8 0.00 0.00 0.00 67 1017.4
20260507100329 11 176 3.2 3.2 0.00 0.00 0.00 67 1017.3
20260507095827 11 176 3.2 3.2 0.00 0.00 0.00 67 1017.3
20260507095323 11 176 3.2 3.2 0.00 0.00 0.00 67 1017.3
20260507094821 11 266 0.0 0.0 0.00 0.00 0.00 66 1017.3
20260507094317 11 1 0.0 0.0 0.00 0.00 0.00 65 1017.1
20260507093814 11 166 1.6 1.6 0.00 0.00 0.00 64 1017.1
20260507093312 11 120 1.6 3.2 0.00 0.00 0.00 64 1017.0
20260507092810 11 49 4.8 8.0 0.00 0.00 0.00 64 1017.2
20260507092307 11 156 3.2 3.2 0.00 0.00 0.00 63 1017.1
20260507091803 11 222 0.0 1.6 0.00 0.00 0.00 64 1017.1
20260507091259 11 148 3.2 4.8 0.00 0.00 0.00 64 1017.2
20260507090759 11 133 6.4 8.0 0.00 0.00 0.00 64 1017.2
20260507090256 11 167 0.0 0.0 0.00 0.00 0.00 64 1017.0
20260507085754 11 164 1.6 1.6 0.00 0.00 0.00 64 1017.2
20260507085250 11 195 0.0 0.0 0.00 0.00 0.00 64 1017.2
20260507084748 11 195 1.6 1.6 0.00 0.00 0.00 66 1017.1
20260507084244 11 86 1.6 1.6 0.00 0.00 0.00 65 1017.0
20260507083741 11 217 0.0 1.6 0.00 0.00 0.00 65 1017.1
20260507083238 10 87 1.6 1.6 0.00 0.00 0.00 65 1017.1
20260507082734 11 174 3.2 3.2 0.00 0.00 0.00 66 1017.1
20260507082230 11 187 0.0 0.0 0.00 0.00 0.00 66 1017.0
20260507081727 11 185 3.2 3.2 0.00 0.00 0.00 67 1016.9
20260507081223 10 241 1.6 3.2 0.00 0.00 0.00 68 1016.8
20260507080720 10 132 3.2 3.2 0.00 0.00 0.00 70 1016.8
20260507080216 10 134 3.2 3.2 0.00 0.00 0.00 69 1017.0
20260507075711 10 187 0.0 1.6 0.00 0.00 0.00 70 1016.7
20260507075208 10 175 0.0 1.6 0.00 0.00 0.00 71 1016.8
20260507074704 10 171 0.0 0.0 0.00 0.00 0.00 73 1016.7
20260507074203 9 181 1.6 1.6 0.00 0.00 0.00 74 1016.8
20260507073659 9 143 3.2 3.2 0.00 0.00 0.00 74 1016.8
20260507073155 9 186 0.0 0.0 0.00 0.00 0.00 75 1016.5
20260507072653 9 82 1.6 3.2 0.00 0.00 0.00 75 1016.6
20260507072150 9 139 0.0 1.6 0.00 0.00 0.00 74 1016.5
20260507071648 9 168 0.0 1.6 0.00 0.00 0.00 74 1016.6
20260507071144 9 65 1.6 1.6 0.00 0.00 0.00 75 1016.5
20260507070641 8 148 0.0 1.6 0.00 0.00 0.00 75 1016.5
20260507070138 8 174 0.0 0.0 0.00 0.00 0.00 75 1016.8
20260507065634 8 184 0.0 0.0 0.00 0.00 0.00 75 1016.6
20260507065131 8 201 1.6 1.6 0.00 0.00 0.00 75 1016.4
20260507064629 9 129 1.6 3.2 0.00 0.00 0.00 75 1016.6
20260507064127 9 160 0.0 0.0 0.00 0.00 0.00 76 1016.7
20260507063624 9 154 0.0 0.0 0.00 0.00 0.00 76 1016.6
20260507063121 8 196 0.0 0.0 0.00 0.00 0.00 76 1016.3
20260507062618 8 197 0.0 0.0 0.00 0.00 0.00 76 1016.5
20260507062116 8 204 0.0 0.0 0.00 0.00 0.00 77 1016.3
20260507061613 8 209 0.0 0.0 0.00 0.00 0.00 77 1016.5
20260507061111 8 171 1.6 1.6 0.00 0.00 0.00 77 1016.6
20260507060609 8 182 0.0 0.0 0.00 0.00 0.00 77 1016.3
20260507060105 8 84 1.6 1.6 0.00 0.00 0.00 79 1016.3
20260507055600 8 125 1.6 1.6 0.00 0.00 0.00 80 1016.2
20260507055057 8 196 0.0 0.0 0.00 0.00 0.00 81 1016.2
20260507054553 8 166 1.6 3.2 0.00 0.00 0.00 82 1016.0
20260507054050 7 189 0.0 0.0 0.00 0.00 0.00 83 1016.2
20260507053548 7 196 0.0 0.0 0.00 0.00 0.00 83 1016.1
20260507053046 7 160 1.6 1.6 0.00 0.00 0.00 84 1016.0
20260507052544 7 197 0.0 0.0 0.00 0.00 0.00 84 1016.2
20260507052040 7 192 0.0 0.0 0.00 0.00 0.00 84 1016.2
20260507051538 7 203 0.0 0.0 0.00 0.00 0.00 84 1016.0
20260507051035 7 186 0.0 0.0 0.00 0.00 0.00 85 1016.1
20260507050531 7 211 0.0 0.0 0.00 0.00 0.00 85 1016.1
20260507050028 7 209 0.0 0.0 0.00 0.00 0.00 85 1015.9
20260507045524 7 213 0.0 0.0 0.00 0.00 0.00 85 1015.9
20260507045022 7 208 0.0 0.0 0.00 0.00 0.00 85 1016.0
20260507044518 7 251 0.0 0.0 0.00 0.00 0.00 85 1015.8
20260507044015 7 270 0.0 1.6 0.00 0.00 0.00 85 1015.8
20260507043511 7 308 1.6 1.6 0.00 0.00 0.00 85 1015.7
20260507043008 7 213 0.0 0.0 0.00 0.00 0.00 86 1016.1
20260507042504 7 207 0.0 0.0 0.00 0.00 0.00 86 1016.0
20260507042000 7 214 0.0 0.0 0.00 0.00 0.00 86 1015.7
20260507041457 7 221 0.0 0.0 0.00 0.00 0.00 85 1015.9
20260507040954 7 214 0.0 0.0 0.00 0.00 0.00 85 1015.8
20260507040450 7 223 0.0 0.0 0.00 0.00 0.00 85 1015.8
20260507035945 7 228 0.0 0.0 0.00 0.00 0.00 85 1015.7
20260507035442 7 244 1.6 1.6 0.00 0.00 0.00 85 1015.5
20260507034939 7 225 0.0 1.6 0.00 0.00 0.00 85 1015.6
20260507034436 7 219 0.0 0.0 0.00 0.00 0.00 85 1015.4
20260507033934 7 224 0.0 0.0 0.00 0.00 0.00 85 1015.5
20260507033432 7 216 0.0 0.0 0.00 0.00 0.00 85 1015.5
20260507032928 7 204 0.0 0.0 0.00 0.00 0.00 84 1015.5
20260507032426 7 204 0.0 0.0 0.00 0.00 0.00 84 1015.6
20260507031921 7 204 0.0 0.0 0.00 0.00 0.00 84 1015.3
20260507031418 7 204 0.0 0.0 0.00 0.00 0.00 84 1015.5
20260507030915 7 204 0.0 0.0 0.00 0.00 0.00 84 1015.5
20260507030412 7 208 0.0 0.0 0.00 0.00 0.00 84 1015.5
20260507025909 7 208 0.0 0.0 0.00 0.00 0.00 84 1015.2
20260507025407 7 206 0.0 0.0 0.00 0.00 0.00 84 1015.6
20260507024904 7 196 0.0 0.0 0.00 0.00 0.00 83 1015.4
20260507024401 7 193 0.0 0.0 0.00 0.00 0.00 83 1015.4
20260507023857 7 196 0.0 0.0 0.00 0.00 0.00 83 1015.5
20260507023354 7 201 0.0 0.0 0.00 0.00 0.00 83 1015.6
20260507022851 7 207 0.0 0.0 0.00 0.00 0.00 83 1015.4
20260507022348 7 205 0.0 0.0 0.00 0.00 0.00 83 1015.4
20260507021844 7 210 0.0 0.0 0.00 0.00 0.00 82 1015.5
20260507021339 7 212 0.0 0.0 0.00 0.00 0.00 82 1015.6
20260507020838 7 202 0.0 0.0 0.00 0.00 0.00 82 1015.5
20260507020334 7 213 0.0 0.0 0.00 0.00 0.00 82 1015.7
20260507015831 7 217 0.0 0.0 0.00 0.00 0.00 82 1015.4
20260507015329 7 206 0.0 0.0 0.00 0.00 0.00 82 1015.4
20260507014826 7 197 0.0 0.0 0.00 0.00 0.00 82 1015.5
20260507014322 7 204 0.0 0.0 0.00 0.00 0.00 82 1015.4
20260507013818 7 253 1.6 1.6 0.00 0.00 0.00 82 1015.5
20260507013315 7 237 0.0 1.6 0.00 0.00 0.00 82 1015.2
20260507012813 7 210 0.0 0.0 0.00 0.00 0.00 82 1015.4
20260507012309 7 214 0.0 0.0 0.00 0.00 0.00 82 1015.4
20260507011806 7 248 0.0 1.6 0.00 0.00 0.00 82 1015.4
20260507011303 7 261 0.0 0.0 0.00 0.00 0.00 83 1015.5
20260507010802 7 272 1.6 1.6 0.00 0.00 0.00 83 1015.6
20260507010258 8 353 1.6 1.6 0.00 0.00 0.00 83 1015.3
20260507005756 8 211 0.0 0.0 0.00 0.00 0.00 83 1015.4
20260507005252 8 202 0.0 0.0 0.00 0.00 0.00 83 1015.3
20260507004749 8 170 0.0 0.0 0.00 0.00 0.00 83 1015.4
20260507004247 8 181 0.0 1.6 0.00 0.00 0.00 83 1015.2
20260507003743 8 284 1.6 1.6 0.00 0.00 0.00 83 1015.3
20260507003238 8 216 0.0 0.0 0.00 0.00 0.00 83 1015.3
20260507002734 8 228 0.0 0.0 0.00 0.00 0.00 82 1015.4
20260507002230 8 205 0.0 0.0 0.00 0.00 0.00 82 1015.4
20260507001727 8 216 0.0 0.0 0.00 0.00 0.00 82 1015.5
20260507001225 8 202 0.0 0.0 0.00 0.00 0.00 82 1015.4
20260507000721 8 215 0.0 1.6 0.00 0.00 0.00 82 1015.5
20260507000216 8 230 0.0 0.0 0.00 0.00 0.00 82 1015.5
20260506235714 8 206 0.0 0.0 0.00 0.00 0.00 82 1015.5
20260506235209 8 211 1.6 1.6 0.00 0.00 0.00 82 1015.3
20260506234706 8 340 0.0 1.6 0.00 0.00 0.00 82 1015.5
20260506234204 8 242 0.0 0.0 0.00 0.00 0.00 82 1015.6
20260506233701 8 245 1.6 1.6 0.00 0.00 0.00 82 1015.5
20260506233157 8 9 3.2 3.2 0.00 0.00 0.00 81 1015.5
20260506232654 8 25 0.0 0.0 0.00 0.00 0.00 81 1015.4
20260506232149 8 356 0.0 3.2 0.00 0.00 0.00 81 1015.3
20260506231646 8 243 1.6 1.6 0.00 0.00 0.00 81 1015.6
20260506231145 8 313 1.6 1.6 0.00 0.00 0.00 81 1015.4
20260506230641 8 218 0.0 0.0 0.00 0.00 0.00 81 1015.4
20260506230138 8 191 0.0 0.0 0.00 0.00 0.00 81 1015.5
20260506225634 8 248 1.6 1.6 0.00 0.46 0.46 81 1015.3
20260506225131 8 208 0.0 1.6 0.00 0.46 0.46 81 1015.5
20260506224628 8 23 3.2 4.8 0.00 0.46 0.46 81 1015.4
20260506224124 8 205 0.0 0.0 0.00 0.46 0.46 81 1015.5
20260506223621 8 27 3.2 3.2 0.00 0.46 0.46 81 1015.4
20260506223117 8 79 1.6 3.2 0.00 0.46 0.46 81 1015.5
20260506222614 8 16 4.8 4.8 0.00 0.46 0.46 81 1015.5
20260506222110 8 41 3.2 3.2 0.00 0.46 0.46 81 1015.5
20260506221608 8 15 3.2 3.2 0.00 0.46 0.46 81 1015.3
20260506221106 8 121 3.2 4.8 0.00 0.46 0.46 81 1015.3
20260506220602 8 183 0.0 0.0 0.00 0.46 0.46 81 1015.3
20260506220057 8 271 0.0 1.6 0.00 0.46 0.46 81 1015.4
20260506215554 8 7 3.2 3.2 0.00 0.46 0.46 81 1015.2
20260506215050 8 171 0.0 1.6 0.00 0.46 0.46 81 1015.3
20260506214547 8 301 0.0 1.6 0.00 0.46 0.46 81 1015.2
20260506214044 8 2 3.2 3.2 0.00 0.46 0.46 80 1015.1
20260506213543 8 171 0.0 1.6 0.00 0.46 0.46 80 1014.9
20260506213040 8 208 0.0 0.0 0.00 0.46 0.46 80 1014.9
20260506212536 8 279 0.0 1.6 0.00 0.46 0.46 80 1015.0
20260506212031 8 183 1.6 3.2 0.00 0.46 0.46 80 1014.8
20260506211527 8 188 0.0 0.0 0.00 0.46 0.46 80 1015.0
20260506211024 8 212 0.0 1.6 0.00 0.46 0.46 80 1015.1
20260506210521 8 257 0.0 0.0 0.00 0.46 0.46 80 1014.9
20260506210017 8 186 0.0 0.0 0.00 0.46 0.46 80 1014.8
20260506205514 8 230 0.0 1.6 0.00 0.46 0.46 80 1015.1
20260506205009 8 179 0.0 1.6 0.00 0.46 0.46 80 1015.0
20260506204508 8 55 3.2 3.2 0.00 0.46 0.46 80 1014.8
20260506204004 8 75 1.6 3.2 0.00 0.46 0.46 80 1014.9
20260506203503 8 165 0.0 0.0 0.00 0.46 0.46 80 1014.7
20260506202959 8 206 0.0 0.0 0.00 0.46 0.46 79 1014.9
20260506202456 8 163 1.6 1.6 0.00 0.46 0.46 79 1014.9
20260506201952 8 135 1.6 3.2 0.00 0.46 0.46 79 1014.8
20260506201450 8 216 1.6 1.6 0.00 0.46 0.46 79 1014.8
20260506200947 8 261 0.0 1.6 0.00 0.46 0.46 79 1014.7
20260506200443 8 177 0.0 1.6 0.00 0.46 0.46 79 1014.7
20260506195939 8 60 1.6 1.6 0.00 0.46 0.46 79 1014.9
20260506195436 8 176 0.0 1.6 0.00 0.46 0.46 79 1014.8
20260506194933 8 112 4.8 8.0 0.00 0.46 0.46 79 1014.7
20260506194430 8 194 1.6 3.2 0.00 0.46 0.46 79 1014.9
20260506193927 8 36 1.6 1.6 0.00 0.46 0.46 79 1014.6
20260506193424 8 46 0.0 1.6 0.00 0.46 0.46 79 1014.4
20260506192921 8 61 1.6 1.6 0.00 0.46 0.46 79 1014.6
20260506192417 8 182 0.0 0.0 0.00 0.46 0.46 79 1014.4
20260506191915 8 147 1.6 1.6 0.00 0.46 0.46 79 1014.3
20260506191411 8 173 1.6 3.2 0.00 0.46 0.46 79 1014.4
20260506190908 9 185 1.6 1.6 0.00 0.46 0.46 79 1014.3
20260506190404 9 160 1.6 1.6 0.00 0.46 0.46 79 1014.1
20260506185901 9 18 4.8 8.0 0.00 0.46 0.46 79 1014.3
20260506185358 9 40 0.0 1.6 0.00 0.46 0.46 79 1014.2
20260506184855 9 20 3.2 3.2 0.00 0.46 0.46 79 1013.9
20260506184352 9 325 1.6 1.6 0.00 0.46 0.46 79 1014.1
20260506183850 9 162 4.8 8.0 0.00 0.46 0.46 79 1013.9
20260506183345 9 253 3.2 3.2 0.00 0.46 0.46 79 1014.1
20260506182842 9 168 0.0 1.6 0.00 0.46 0.46 79 1013.9
20260506182339 9 220 1.6 1.6 0.00 0.46 0.46 79 1014.0
20260506181837 9 322 1.6 3.2 0.00 0.46 0.46 79 1013.9
20260506181335 9 37 0.0 1.6 0.00 0.46 0.46 79 1013.9
20260506180832 10 245 0.0 1.6 0.00 0.46 0.46 79 1013.8
20260506180327 10 191 1.6 1.6 0.00 0.46 0.46 79 1013.7
20260506175824 10 9 6.4 9.7 0.00 0.46 0.46 79 1013.7
20260506175321 10 356 1.6 1.6 0.00 0.46 0.46 79 1013.5
20260506174818 10 7 3.2 4.8 0.00 0.46 0.46 79 1013.5
20260506174315 10 29 8.0 11.3 0.00 0.46 0.46 79 1013.5
20260506173813 10 60 1.6 3.2 0.00 0.46 0.46 79 1013.3
20260506173309 10 356 4.8 8.0 0.00 0.46 0.46 79 1013.4
20260506172807 10 34 1.6 1.6 0.00 0.46 0.46 79 1013.4
20260506172306 10 25 1.6 3.2 0.00 0.46 0.46 79 1013.3
20260506171801 10 98 1.6 1.6 0.00 0.46 0.46 79 1013.1
20260506171257 10 170 3.2 4.8 0.00 0.46 0.46 79 1013.3
20260506170755 10 0 1.6 1.6 0.00 0.46 0.46 79 1013.1
20260506170251 10 309 1.6 3.2 0.00 0.46 0.46 79 1013.4
20260506165750 10 159 1.6 3.2 0.00 0.46 0.46 79 1013.2
20260506165247 10 358 0.0 1.6 0.00 0.46 0.46 80 1013.3
20260506164744 10 58 1.6 1.6 0.00 0.46 0.46 80 1013.1
20260506164241 10 134 1.6 1.6 0.00 0.46 0.46 80 1013.1
20260506163738 10 150 1.6 1.6 0.00 0.46 0.46 80 1013.1
20260506163232 10 70 1.6 1.6 0.00 0.46 0.46 80 1013.0
20260506162729 10 11 3.2 4.8 0.00 0.46 0.46 81 1013.2
20260506162227 10 119 4.8 4.8 0.00 0.46 0.46 82 1013.2
20260506161724 10 186 3.2 3.2 0.00 0.46 0.46 83 1013.1
20260506161221 10 156 1.6 3.2 0.00 0.46 0.46 84 1013.1
20260506160718 10 22 4.8 4.8 0.00 0.46 0.46 85 1013.2
20260506160215 10 7 1.6 1.6 0.00 0.46 0.46 85 1013.1
20260506155713 10 145 1.6 1.6 0.00 0.46 0.46 86 1013.0
20260506155210 10 197 1.6 1.6 0.00 0.46 0.46 86 1013.1
20260506153318 10 18 1.6 3.2 0.00 0.46 0.46 86 1013.1
20260506152815 10 245 0.0 0.0 0.00 0.46 0.46 86 1013.2
20260506152312 10 337 3.2 4.8 0.00 0.46 0.46 85 1013.2
20260506151811 10 296 1.6 3.2 0.00 0.46 0.46 85 1013.1
20260506151307 10 18 1.6 3.2 0.00 0.46 0.46 85 1013.0
20260506150804 10 333 1.6 1.6 0.00 0.46 0.46 84 1013.2
20260506150304 10 12 6.4 9.7 0.00 0.46 0.46 84 1013.0
20260506145758 10 340 6.4 9.7 0.00 0.46 0.46 84 1013.0
20260506145254 10 41 6.4 8.0 0.00 0.46 0.46 83 1012.9
20260506144752 10 8 3.2 3.2 0.00 0.46 0.46 83 1013.1
20260506144248 10 13 1.6 3.2 0.00 0.46 0.46 83 1012.9
20260506143746 10 107 6.4 8.0 0.00 0.46 0.46 83 1012.9
20260506143243 10 47 4.8 4.8 0.00 0.46 0.46 83 1012.9
20260506142742 10 13 4.8 8.0 0.00 0.46 0.46 82 1012.8
20260506142239 10 9 4.8 4.8 0.00 0.46 0.46 82 1013.0
20260506141738 10 170 1.6 3.2 0.00 0.46 0.46 81 1013.0
20260506141235 10 5 4.8 8.0 0.00 0.46 0.46 81 1012.8
20260506140732 10 41 1.6 1.6 0.00 0.46 0.46 81 1012.8
20260506140229 10 44 6.4 9.7 0.00 0.46 0.46 81 1012.9
20260506135726 10 344 6.4 9.7 0.00 0.46 0.46 81 1013.0
20260506135222 10 177 4.8 8.0 0.00 0.46 0.46 82 1013.1
20260506134719 10 50 0.0 1.6 0.00 0.46 0.46 83 1012.9
20260506134215 10 204 3.2 3.2 0.00 0.46 0.46 83 1013.3
20260506133713 10 359 4.8 8.0 0.00 0.46 0.46 83 1012.9
20260506133209 10 245 1.6 1.6 0.00 0.46 0.46 84 1013.1
20260506132707 10 10 3.2 4.8 0.00 0.46 0.46 84 1012.8
20260506132203 10 347 3.2 3.2 0.00 0.46 0.46 84 1012.9
20260506131701 10 271 3.2 3.2 0.00 0.46 0.46 84 1013.0
20260506131157 10 264 1.6 3.2 0.00 0.46 0.46 85 1013.0
20260506130654 10 272 1.6 1.6 0.00 0.46 0.46 84 1012.9
20260506130151 10 21 1.6 3.2 0.00 0.46 0.46 84 1013.1
20260506125649 10 223 0.0 1.6 0.00 0.46 0.46 84 1012.8
20260506125147 10 186 0.0 1.6 0.00 0.46 0.46 84 1012.9
20260506124645 10 58 4.8 4.8 0.00 0.46 0.46 83 1013.1
20260506124142 10 16 3.2 3.2 0.00 0.46 0.46 83 1012.8
20260506123639 10 14 11.3 12.9 0.00 0.46 0.46 83 1012.9
20260506123138 10 64 4.8 4.8 0.00 0.46 0.46 83 1012.8
20260506122635 10 231 1.6 1.6 0.00 0.46 0.46 84 1012.6
20260506122132 10 2 3.2 4.8 0.00 0.46 0.46 84 1012.8
20260506121630 10 275 3.2 3.2 0.00 0.46 0.46 85 1012.7
20260506121126 10 280 3.2 3.2 0.00 0.46 0.46 85 1013.1
20260506120624 10 15 6.4 8.0 0.00 0.46 0.46 85 1012.8
20260506120121 10 120 1.6 3.2 0.00 0.46 0.46 86 1012.7
20260506115620 10 182 1.6 1.6 0.00 0.46 0.46 86 1012.7
20260506115117 10 189 1.6 1.6 0.00 0.46 0.46 86 1012.7
20260506114614 9 41 4.8 4.8 0.00 0.46 0.46 86 1012.6